EW3786 Hemavan SE current weather conditions

sailwx.info

Wind from 068

Air temperature 11.1° C
Dewpoint 8.9° C

Last reported at 2020-Aug-05 21:03 UTC.
Time now 2020-Aug-06 13:23 UTC

Location: N 65°49' E 015°07'.
View on Google Maps.

See reports from other nearby stations

  
Tides and Currents Weather Stations Pressure Air Temp Water Temp Dewpoint Dewpoint Depression Visibility Wind Speed Wind Dir Waves Ship Positions
date/time (UTC)wind fromknots sea level pressurealtimeterstation pressurevisibilityair tempwater tempwave heightnotes
2020-Aug-05 21:03 068 11.1
2020-Aug-05 20:58 068 11.1
2020-Aug-05 20:53 068 11.1
2020-Aug-05 20:48 068 11.1
2020-Aug-05 20:43 068 11.1
2020-Aug-05 20:38 068 0 gusting 3 11.1
2020-Aug-05 20:33 068 0 gusting 3 11.7
2020-Aug-05 20:28 065 11.7
2020-Aug-05 20:23 065 1 gusting 2 11.7
2020-Aug-05 20:18 065 0 gusting 2 11.7
2020-Aug-05 20:13 064 0 gusting 1 11.7
2020-Aug-05 20:08 064 11.7
2020-Aug-05 20:03 064 0 gusting 1 12.2
2020-Aug-05 19:58 286 12.2
2020-Aug-05 19:53 064 0 gusting 3 12.2
2020-Aug-05 19:48 068 0 gusting 2 12.2
2020-Aug-05 19:43 068 1 gusting 2 12.2
2020-Aug-05 19:38 353 0 gusting 2 12.2
2020-Aug-05 19:33 347 0 gusting 6 12.2
2020-Aug-05 19:28 313 1 gusting 6 12.2
2020-Aug-05 19:23 139 12.2
2020-Aug-05 19:18 058 0 gusting 2 12.2
2020-Aug-05 19:13 058 0 gusting 3 12.2
2020-Aug-05 19:08 058 1 gusting 3 12.8
2020-Aug-05 19:03 065 0 gusting 3 12.8
2020-Aug-05 18:58 062 1 gusting 3 12.8
2020-Aug-05 18:53 008 12.8
2020-Aug-05 18:48 115 13.3
2020-Aug-05 18:43 136 13.3
2020-Aug-05 18:38 136 0 gusting 2 13.3
2020-Aug-05 18:33 136 1 gusting 2 13.3
2020-Aug-05 18:28 139 0 gusting 2 13.9
2020-Aug-05 18:23 139 13.9
2020-Aug-05 18:18 139 0 gusting 3 13.9
2020-Aug-05 18:13 137 1 gusting 3 14.4
2020-Aug-05 18:08 159 0 gusting 2 14.4
2020-Aug-05 18:03 160 0 gusting 3 14.4
2020-Aug-05 17:58 142 1 gusting 3 15.0
2020-Aug-05 17:53 116 0 gusting 2 15.0
2020-Aug-05 17:48 115 15.0
2020-Aug-05 17:43 115 15.0
2020-Aug-05 17:38 114 0 gusting 2 15.6
2020-Aug-05 17:33 162 0 gusting 2 15.6
2020-Aug-05 17:28 160 0 gusting 2 15.6
2020-Aug-05 17:23 146 0 gusting 3 15.6
2020-Aug-05 17:18 142 0 gusting 4 15.6
2020-Aug-05 17:13 152 1 gusting 8 15.6
2020-Aug-05 17:08 119 4 gusting 8 15.6
2020-Aug-05 17:03 120 1 gusting 7 15.6
2020-Aug-05 16:58 123 2 gusting 6 15.6
2020-Aug-05 16:53 226 0 gusting 4 15.6
2020-Aug-05 16:48 198 2 gusting 3 15.0
2020-Aug-05 16:43 133 15.0
2020-Aug-05 16:38 143 1 gusting 6 15.0
2020-Aug-05 16:33 131 2 gusting 6 15.6
2020-Aug-05 16:28 147 2 gusting 6 15.6
2020-Aug-05 16:23 207 1 gusting 6 15.6
2020-Aug-05 16:18 210 0 gusting 3 15.6
2020-Aug-05 16:13 355 1 gusting 4 15.6
2020-Aug-05 16:08 342 2 gusting 4 15.6
2020-Aug-05 16:03 318 0 gusting 3 15.6
2020-Aug-05 15:58 319 0 gusting 5 15.6
2020-Aug-05 15:53 326 2 gusting 5 15.6
2020-Aug-05 15:48 102 0 gusting 2 15.0
2020-Aug-05 15:43 089 0 gusting 1 15.0
2020-Aug-05 15:38 010 0 gusting 1 15.0
2020-Aug-05 15:33 020 15.0
2020-Aug-05 15:28 020 15.0
2020-Aug-05 15:23 109 0 gusting 4 15.0
2020-Aug-05 15:18 155 1 gusting 4 15.0
2020-Aug-05 15:13 158 1 gusting 6 15.0
2020-Aug-05 15:08 121 3 gusting 7 15.6
2020-Aug-05 15:03 133 3 gusting 7 15.6
2020-Aug-05 14:58 125 3 gusting 10 16.7
2020-Aug-05 14:53 116 5 gusting 13 16.7
2020-Aug-05 14:48 142 6 gusting 13 17.8
2020-Aug-05 14:43 107 4 gusting 8 18.3
2020-Aug-05 14:38 150 0 gusting 5 18.9
2020-Aug-05 14:33 134 1 gusting 5 18.9
2020-Aug-05 14:28 210 3 gusting 6 18.9
2020-Aug-05 14:23 131 3 gusting 6 18.9
2020-Aug-05 14:18 152 2 gusting 7 18.9
2020-Aug-05 14:13 181 4 gusting 7 18.9
2020-Aug-05 14:08 170 1 gusting 4 18.9
2020-Aug-05 14:03 201 1 gusting 7 18.9
2020-Aug-05 13:58 238 3 gusting 7 18.3
2020-Aug-05 13:53 151 17.8
2020-Aug-05 13:48 145 2 gusting 6 17.8
2020-Aug-05 13:43 196 1 gusting 5 17.8
2020-Aug-05 13:38 184 0 gusting 5 18.3
2020-Aug-05 13:33 149 0 gusting 6 18.3
2020-Aug-05 13:28 218 1 gusting 6 18.9
2020-Aug-05 13:23 208 2 gusting 10 18.9
2020-Aug-05 13:18 131 4 gusting 10 18.9
2020-Aug-05 13:13 253 1 gusting 6 18.9
2020-Aug-05 13:08 128 2 gusting 7 18.9
2020-Aug-05 13:03 154 3 gusting 10 18.9
2020-Aug-05 12:58 143 3 gusting 10 18.9
2020-Aug-05 12:53 162 2 gusting 6 18.9
2020-Aug-05 12:48 141 1 gusting 8 18.3
2020-Aug-05 12:43 211 1 gusting 8 18.3
2020-Aug-05 12:38 145 2 gusting 6 17.8
2020-Aug-05 12:33 155 0 gusting 6 17.8
2020-Aug-05 12:28 147 1 gusting 6 17.8
2020-Aug-05 12:23 135 1 gusting 6 17.2
2020-Aug-05 12:18 189 2 gusting 4 17.2
2020-Aug-05 12:13 175 0 gusting 4 16.7
2020-Aug-05 12:08 148 1 gusting 4 16.1
2020-Aug-05 12:03 145 0 gusting 3 16.7
2020-Aug-05 11:58 146 16.1
2020-Aug-05 11:53 161 0 gusting 5 16.7
2020-Aug-05 11:48 164 1 gusting 5 16.7
2020-Aug-05 11:43 230 0 gusting 6 16.7
2020-Aug-05 11:38 140 2 gusting 6 16.7
2020-Aug-05 11:33 152 0 gusting 6 16.7
2020-Aug-05 11:28 170 2 gusting 6 16.7
2020-Aug-05 11:23 151 1 gusting 5 16.1
2020-Aug-05 11:18 122 0 gusting 2 16.7
2020-Aug-05 11:13 142 0 gusting 4 16.7
2020-Aug-05 11:08 147 1 gusting 6 16.7
2020-Aug-05 11:03 160 1 gusting 6 16.7
2020-Aug-05 10:58 146 2 gusting 4 16.7
2020-Aug-05 10:53 210 1 gusting 6 16.7
2020-Aug-05 10:48 228 0 gusting 7 16.7
2020-Aug-05 10:43 166 1 gusting 7 16.7
2020-Aug-05 10:38 147 0 gusting 6 17.2
2020-Aug-05 10:33 185 1 gusting 5 17.2
2020-Aug-05 10:28 153 2 gusting 5 17.2
2020-Aug-05 10:23 158 2 gusting 5 16.7
2020-Aug-05 10:18 173 1 gusting 6 16.1
2020-Aug-05 10:13 237 0 gusting 5 15.6
2020-Aug-05 10:08 230 0 gusting 8 15.6
2020-Aug-05 10:03 159 2 gusting 8 16.1
2020-Aug-05 09:58 118 1 gusting 6 16.1
2020-Aug-05 09:53 153 2 gusting 6 16.1
2020-Aug-05 09:48 168 0 gusting 7 16.1
2020-Aug-05 09:43 149 1 gusting 7 15.6
2020-Aug-05 09:38 179 1 gusting 5 15.6
2020-Aug-05 09:33 157 0 gusting 6 15.6
2020-Aug-05 09:28 236 0 gusting 6 15.0
2020-Aug-05 09:23 158 2 gusting 6 15.0
2020-Aug-05 09:18 203 1 gusting 5 15.0
2020-Aug-05 09:13 160 0 gusting 3 14.4
2020-Aug-05 09:08 159 14.4
2020-Aug-05 09:03 156 2 gusting 6 14.4
2020-Aug-05 08:58 133 2 gusting 4 14.4
2020-Aug-05 08:53 129 1 gusting 4 14.4
2020-Aug-05 08:48 127 0 gusting 6 15.0
2020-Aug-05 08:43 116 2 gusting 6 15.0
2020-Aug-05 08:38 147 1 gusting 3 15.0
2020-Aug-05 08:33 142 0 gusting 4 14.4
2020-Aug-05 08:28 141 1 gusting 4 13.9
2020-Aug-05 08:23 210 0 gusting 4 13.9
2020-Aug-05 08:18 200 1 gusting 4 13.9
2020-Aug-05 08:13 162 0 gusting 2 13.3
2020-Aug-05 08:08 161 13.3
2020-Aug-05 08:04 159 0 gusting 3 12.8
2020-Aug-05 07:58 168 1 gusting 4 12.8
2020-Aug-05 07:53 151 0 gusting 6 12.8
2020-Aug-05 07:48 286 1 gusting 4 12.2
2020-Aug-05 07:43 247 1 gusting 4 12.2
2020-Aug-05 07:38 193 0 gusting 3 11.7
2020-Aug-05 07:33 200 0 gusting 3 11.1
2020-Aug-05 07:28 227 11.1
2020-Aug-05 07:23 286 0 gusting 2 11.1
2020-Aug-05 07:18 286 0 gusting 2 11.1
2020-Aug-05 07:13 286 10.6
2020-Aug-05 07:08 286 10.6
2020-Aug-05 07:03 286 10.6
2020-Aug-05 06:58 286 10.6
2020-Aug-05 06:53 086 10.6
2020-Aug-05 06:48 286 10.0
2020-Aug-05 06:43 086 0 gusting 5 10.0
2020-Aug-05 06:38 286 9.4
2020-Aug-05 06:33 079 1 gusting 4 9.4
2020-Aug-05 06:28 079 0 gusting 2 9.4
2020-Aug-05 06:23 079 0 gusting 1 9.4
2020-Aug-05 06:18 079 9.4
2020-Aug-05 06:13 079 0 gusting 4 9.4
2020-Aug-05 06:08 079 9.4
2020-Aug-05 06:03 079 9.4
2020-Aug-05 05:58 079 9.4
2020-Aug-05 05:53 079 9.4
2020-Aug-05 05:48 079 9.4
2020-Aug-05 05:43 079 9.4
2020-Aug-05 05:38 079 9.4
2020-Aug-05 05:33 079 9.4
2020-Aug-05 05:28 079 8.9
2020-Aug-05 05:23 079 0 gusting 2 8.9
2020-Aug-05 05:18 079 8.9
2020-Aug-05 05:13 079 0 gusting 1 8.9
2020-Aug-05 05:08 079 8.9
2020-Aug-05 05:03 079 8.9
2020-Aug-05 04:58 079 0 gusting 4 8.9
2020-Aug-05 04:53 079 8.9
2020-Aug-05 04:48 079 8.9
2020-Aug-05 04:43 079 8.9
2020-Aug-05 04:38 079 8.9
2020-Aug-05 04:33 079 8.9
2020-Aug-05 04:28 079 0 gusting 1 8.9
2020-Aug-05 04:23 079 8.9
2020-Aug-05 04:18 079 8.9
2020-Aug-05 04:13 079 8.9
2020-Aug-05 04:08 079 8.9
2020-Aug-05 04:03 079 8.9
2020-Aug-05 03:58 079 1 gusting 4 8.9
2020-Aug-05 03:53 079 1 gusting 4 8.9
2020-Aug-05 03:48 079 1 gusting 2 8.9
2020-Aug-05 03:43 079 8.9
2020-Aug-05 03:38 079 8.9
2020-Aug-05 03:33 079 8.3
2020-Aug-05 03:28 079 8.3
2020-Aug-05 03:23 079 8.3
2020-Aug-05 03:18 079 8.3
2020-Aug-05 03:13 079 8.3
2020-Aug-05 03:08 079 8.3
2020-Aug-05 03:03 079 8.3
2020-Aug-05 02:58 079 0 gusting 1 8.3
2020-Aug-05 02:53 079 8.3
2020-Aug-05 02:48 079 8.3
2020-Aug-05 02:43 079 8.3
2020-Aug-05 02:38 079 8.3
2020-Aug-05 02:33 079 0 gusting 1 8.3
2020-Aug-05 02:28 079 0 gusting 0 8.3
2020-Aug-05 02:23 079 8.3
2020-Aug-05 02:18 079 8.3
2020-Aug-05 02:13 079 0 gusting 1 8.3
2020-Aug-05 02:08 079 0 gusting 1 8.3
2020-Aug-05 02:03 079 8.3
2020-Aug-05 01:58 079 8.3
2020-Aug-05 01:53 079 8.3
2020-Aug-05 01:48 079 8.3
2020-Aug-05 01:43 079 0 gusting 1 8.3
2020-Aug-05 01:38 079 8.3
2020-Aug-05 01:33 079 8.3
2020-Aug-05 01:28 079 8.3
2020-Aug-05 01:23 079 8.3
2020-Aug-05 01:18 079 8.3
2020-Aug-05 01:13 079 0 gusting 1 8.3
2020-Aug-05 01:08 079 0 gusting 1 8.3
2020-Aug-05 01:03 079 0 gusting 1 8.3
2020-Aug-05 00:58 079 8.3
2020-Aug-05 00:53 079 8.3
2020-Aug-05 00:48 079 0 gusting 2 8.3
2020-Aug-05 00:43 079 0 gusting 2 8.3
2020-Aug-05 00:38 079 0 gusting 2 8.3
2020-Aug-05 00:28 079 0 gusting 2 8.3
2020-Aug-05 00:23 079 0 gusting 1 8.3
2020-Aug-05 00:18 079 0 gusting 2 8.3
2020-Aug-05 00:13 079 0 gusting 2 8.3
2020-Aug-05 00:08 079 8.3
2020-Aug-05 00:03 079 8.3
2020-Aug-04 23:58 079 0 gusting 4 8.3
2020-Aug-04 23:53 079 2 gusting 4 8.3
2020-Aug-04 23:48 079 1 gusting 4 8.3
2020-Aug-04 23:43 079 1 gusting 4 8.3
2020-Aug-04 23:38 079 1 gusting 4 8.3
2020-Aug-04 23:33 079 0 gusting 2 8.3
2020-Aug-04 23:28 079 0 gusting 2 8.3
2020-Aug-04 23:23 079 0 gusting 1 8.3
2020-Aug-04 23:18 079 8.3
2020-Aug-04 23:13 079 0 gusting 1 8.3
2020-Aug-04 23:08 079 8.3
2020-Aug-04 23:03 079 0 gusting 1 8.3
2020-Aug-04 22:58 079 8.3
2020-Aug-04 22:53 079 8.3
2020-Aug-04 22:48 079 8.3
2020-Aug-04 22:43 079 8.3
2020-Aug-04 22:38 079 8.3
2020-Aug-04 22:33 079 1 gusting 2 8.3
2020-Aug-04 22:28 079 0 gusting 2 8.3
2020-Aug-04 22:23 079 8.3
2020-Aug-04 22:18 079 8.3
2020-Aug-04 22:13 079 0 gusting 5 8.3
2020-Aug-04 22:08 079 3 gusting 5 8.3
2020-Aug-04 22:03 081 1 gusting 4 8.3
2020-Aug-04 21:58 081 1 gusting 4 8.3
2020-Aug-04 21:53 066 0 gusting 4 8.3
2020-Aug-04 21:48 066 2 gusting 4 8.3
2020-Aug-04 21:43 059 8.3
2020-Aug-04 21:38 058 0 gusting 1 8.3
2020-Aug-04 21:33 058 0 gusting 1 8.3
2020-Aug-04 21:28 058 8.3
2020-Aug-04 21:23 058 8.3
2020-Aug-04 21:18 058 8.3
2020-Aug-04 21:13 058 7.8
2020-Aug-04 21:08 058 0 gusting 3 7.8
2020-Aug-04 21:03 064 7.8
2020-Aug-04 20:58 064 2 gusting 4 7.8
2020-Aug-04 20:53 078 2 gusting 4 7.8
2020-Aug-04 20:48 060 1 gusting 4 7.8
2020-Aug-04 20:43 059 1 gusting 5 7.8
2020-Aug-04 20:38 083 2 gusting 5 7.8
2020-Aug-04 20:33 059 1 gusting 3 7.8
2020-Aug-04 20:28 061 1 gusting 3 8.3
2020-Aug-04 20:23 061 0 gusting 1 8.3
2020-Aug-04 20:18 061 0 gusting 2 8.3
2020-Aug-04 20:13 061 0 gusting 2 8.3
2020-Aug-04 20:08 061 0 gusting 1 8.3
2020-Aug-04 20:03 061 8.3
2020-Aug-04 19:58 061 0 gusting 2 8.9
2020-Aug-04 19:53 060 1 gusting 2 8.9
2020-Aug-04 19:48 058 0 gusting 2 8.9
2020-Aug-04 19:43 057 8.9
2020-Aug-04 19:38 039 0 gusting 1 8.9
2020-Aug-04 19:33 356 8.9
2020-Aug-04 19:28 356 8.9
2020-Aug-04 19:23 356 8.9
2020-Aug-04 19:18 356 8.9
2020-Aug-04 19:13 356 8.9
2020-Aug-04 19:08 356 9.4
2020-Aug-04 19:03 356 9.4
2020-Aug-04 18:58 356 9.4
2020-Aug-04 18:53 330 0 gusting 5 9.4
2020-Aug-04 18:48 315 0 gusting 5 9.4
2020-Aug-04 18:43 316 0 gusting 2 9.4
2020-Aug-04 18:38 255 1 gusting 2 9.4
2020-Aug-04 18:33 310 9.4
2020-Aug-04 18:28 310 9.4
2020-Aug-04 18:23 310 9.4
2020-Aug-04 18:18 310 9.4
2020-Aug-04 18:13 310 9.4
2020-Aug-04 18:08 310 9.4
2020-Aug-04 18:03 310 9.4
2020-Aug-04 17:58 310 9.4
2020-Aug-04 17:53 310 9.4
2020-Aug-04 17:48 310 9.4
2020-Aug-04 17:43 310 9.4
2020-Aug-04 17:38 142 9.4
2020-Aug-04 17:33 142 10.0
2020-Aug-04 17:28 142 10.0
2020-Aug-04 17:23 142 10.0
2020-Aug-04 17:18 142 10.0
2020-Aug-04 17:13 140 0 gusting 3 10.0
2020-Aug-04 17:08 140 0 gusting 3 10.0
2020-Aug-04 17:03 095 10.0
2020-Aug-04 16:58 095 10.0
2020-Aug-04 16:53 095 0 gusting 2 10.0
2020-Aug-04 16:48 099 0 gusting 2 10.0
2020-Aug-04 16:43 097 0 gusting 1 10.0
2020-Aug-04 16:38 324 10.6
2020-Aug-04 16:33 324 10.6
2020-Aug-04 16:28 324 0 gusting 3 10.6
2020-Aug-04 16:23 324 0 gusting 4 10.6
2020-Aug-04 16:18 342 1 gusting 7 10.6
2020-Aug-04 16:13 276 2 gusting 7 11.1
2020-Aug-04 16:08 326 1 gusting 6 11.1
2020-Aug-04 16:03 333 0 gusting 6 11.1
2020-Aug-04 15:58 328 3 gusting 6 11.1
2020-Aug-04 15:53 339 3 gusting 5 11.7
2020-Aug-04 15:48 335 2 gusting 5 11.7
2020-Aug-04 15:43 316 1 gusting 5 11.7
2020-Aug-04 15:38 324 2 gusting 5 11.7
2020-Aug-04 15:33 327 1 gusting 6 11.7
2020-Aug-04 15:28 345 2 gusting 6 11.7
2020-Aug-04 15:23 347 2 gusting 6 11.7
2020-Aug-04 15:18 245 2 gusting 4 11.7
2020-Aug-04 15:13 322 0 gusting 6 11.7
2020-Aug-04 15:08 002 2 gusting 6 11.7
2020-Aug-04 15:03 033 1 gusting 7 11.7
2020-Aug-04 14:58 360 1 gusting 6 11.7
2020-Aug-04 14:53 352 1 gusting 6 11.7
2020-Aug-04 14:48 042 1 gusting 5 11.7
2020-Aug-04 14:43 349 3 gusting 5 11.7
2020-Aug-04 14:38 324 1 gusting 5 11.7
2020-Aug-04 14:33 325 1 gusting 6 11.7
2020-Aug-04 14:28 309 3 gusting 6 11.1
2020-Aug-04 14:23 306 2 gusting 6 11.1
2020-Aug-04 14:18 322 1 gusting 5 11.1
2020-Aug-04 14:13 281 1 gusting 4 11.1
2020-Aug-04 14:08 277 1 gusting 6 11.1
2020-Aug-04 14:03 323 2 gusting 8 11.7
2020-Aug-04 13:58 358 1 gusting 8 11.7
2020-Aug-04 13:53 263 1 gusting 4 11.7
2020-Aug-04 13:48 331 2 gusting 4 11.7
2020-Aug-04 13:43 354 2 gusting 5 11.7
2020-Aug-04 13:38 332 1 gusting 5 11.7
2020-Aug-04 13:33 334 2 gusting 7 11.1
2020-Aug-04 13:28 320 3 gusting 7 11.7
2020-Aug-04 13:23 291 3 gusting 6 11.7
2020-Aug-04 13:18 330 3 gusting 8 11.7
2020-Aug-04 13:13 333 1 gusting 8 11.7
2020-Aug-04 13:08 329 2 gusting 9 12.2
2020-Aug-04 13:03 324 3 gusting 9 12.2